Klamath Falls, OR

12:32 AM PDT on March 26, 2017 (GMT -0700)
Klamath Falls International

Weather History for KLMT - May, 2013

Change the Weather History Date:

Tuesday, May 14, 2013

  Actual Average Record
Temperature  
Mean Temperature 54 °F 51 °F  
Max Temperature 74 °F 65 °F 84 °F (1973)
Min Temperature 34 °F 36 °F 26 °F (1999)
Degree Days  
Heating Degree Days 11 14  
Month to date heating degree days 114 224  
Since 1 July heating degree days 6178 6543  
Cooling Degree Days 0 0  
Month to date cooling degree days 0 0  
Year to date cooling degree days 0 0  
Growing Degree Days 3 (Base 50)    
Moisture  
Dew Point 36 °F    
Average Humidity 68    
Maximum Humidity 100    
Minimum Humidity 22    
Precipitation  
Precipitation 0.00 in 0.05 in 0.42 in (1953)
Month to date precipitation 0.22 0.91  
Year to date precipitation 2.75 7.32  
Sea Level Pressure  
Sea Level Pressure 30.05 in    
Wind  
Wind Speed 6 mph (NW)    
Max Wind Speed 20 mph    
Max Gust Speed 24 mph    
Visibility 7 miles    
Events Fog    
T = Trace of Precipitation, MM = Missing Value Source: NWS Daily Summary

Daily Weather History Graph

Daily Weather History Graph

Search for Another Location

Airport or City:

Trip Planner

Search our weather history database for the weather conditions in past years. The results will help you decide how hot, cold, wet, or windy it might be!

Date:

Astronomy

May. 14, 2013 Rise Set
Actual Time 5:46 AM PDT 8:20 PM PDT
Civil Twilight 5:14 AM PDT 8:52 PM PDT
Nautical Twilight 4:34 AM PDT 9:32 PM PDT
Astronomical Twilight 3:49 AM PDT 10:17 PM PDT
Moon 9:31 AM PDT (5/14) No Moon Set
Length of Visible Light 15h 37m
Length of Day
14h 33m
Waxing Crescent, 19% of the Moon is Illuminated
May 14
Waxing Crescent
May 17
First Quarter
May 24
Full
May 31
Last Quarter
Jun 8
New

Hourly Weather History & Observations

Time (PDT) Temp. Windchill Dew Point Humidity Pressure Visibility Wind Dir Wind Speed Gust Speed Precip Events Conditions
12:53 AM 44.1 °F - 37.9 °F 79% 30.06 in 10.0 mi Calm Calm - N/A   Clear
1:53 AM 42.1 °F - 37.9 °F 85% 30.06 in 10.0 mi Calm Calm - N/A   Clear
2:53 AM 39.0 °F - 36.0 °F 89% 30.06 in 10.0 mi Calm Calm - N/A   Clear
3:53 AM 37.9 °F - 35.1 °F 89% 30.06 in 10.0 mi Calm Calm - N/A   Clear
4:53 AM 37.9 °F - 36.0 °F 93% 30.06 in 7.0 mi Calm Calm - N/A   Clear
5:02 AM 35.6 °F 32.8 °F 35.6 °F 100% 30.12 in 2.0 mi East 3.5 mph - N/A   Partly Cloudy
5:09 AM 33.8 °F 29.6 °F 33.8 °F 100% 30.12 in 1.2 mi East 4.6 mph - N/A   Partly Cloudy
5:25 AM 35.6 °F - 35.6 °F 100% 30.13 in 3.0 mi Calm Calm - N/A   Clear
5:33 AM 35.6 °F - 33.8 °F 93% 30.12 in 1.5 mi Calm Calm - N/A   Partly Cloudy
5:35 AM 35.6 °F - 33.8 °F 93% 30.12 in 0.8 mi Calm Calm - N/A   Mist
5:45 AM 35.6 °F - 35.6 °F 100% 30.12 in 0.5 mi Calm Calm - N/A Fog Fog
5:53 AM 36.0 °F - 35.1 °F 97% 30.06 in 1.2 mi Calm Calm - N/A   Partly Cloudy
5:58 AM 37.4 °F 34.9 °F 35.6 °F 93% 30.12 in 3.0 mi SSW 3.5 mph - N/A   Partly Cloudy
6:12 AM 37.4 °F - 35.6 °F 93% 30.12 in 1.5 mi Calm Calm - N/A   Clear
6:21 AM 37.4 °F - 35.6 °F 93% 30.12 in 0.5 mi Calm Calm - N/A Fog Fog
6:26 AM 37.4 °F - 37.4 °F 100% 30.12 in 2.0 mi Calm Calm - N/A   Clear
6:33 AM 39.2 °F 37.0 °F 37.4 °F 93% 30.12 in 10.0 mi NNE 3.5 mph - N/A   Clear
6:53 AM 41.0 °F - 39.0 °F 93% 30.07 in 10.0 mi Calm Calm - N/A   Clear
7:53 AM 48.9 °F - 42.1 °F 77% 30.07 in 10.0 mi WNW 4.6 mph - N/A   Clear
8:53 AM 54.0 °F - 42.1 °F 64% 30.06 in 9.0 mi Calm Calm - N/A   Clear
9:53 AM 59.0 °F - 36.0 °F 42% 30.04 in 10.0 mi NW 5.8 mph - N/A   Clear
10:53 AM 61.0 °F - 35.1 °F 38% 30.04 in 10.0 mi Calm Calm - N/A   Clear
11:53 AM 64.9 °F - 34.0 °F 32% 30.02 in 10.0 mi NE 4.6 mph - N/A   Clear
12:53 PM 69.1 °F - 32.0 °F 25% 30.00 in 10.0 mi NW 8.1 mph - N/A   Clear
1:53 PM 72.0 °F - 33.1 °F 24% 29.99 in 10.0 mi Variable 5.8 mph 16.1 mph N/A   Partly Cloudy
2:53 PM 72.0 °F - 35.1 °F 26% 29.97 in 10.0 mi WNW 9.2 mph - N/A   Partly Cloudy
3:53 PM 73.9 °F - 33.1 °F 22% 29.96 in 10.0 mi West 16.1 mph 20.7 mph N/A   Partly Cloudy
4:53 PM 72.0 °F - 35.1 °F 26% 29.97 in 10.0 mi NNW 15.0 mph 20.7 mph N/A   Clear
5:53 PM 70.0 °F - 32.0 °F 25% 29.98 in 10.0 mi NNW 13.8 mph - N/A   Clear
6:53 PM 68.0 °F - 28.9 °F 23% 29.97 in 10.0 mi NW 17.3 mph - N/A   Clear
7:53 PM 64.0 °F - 30.0 °F 28% 29.97 in 10.0 mi North 6.9 mph - N/A   Clear
8:53 PM 57.0 °F - 36.0 °F 45% 29.99 in 10.0 mi NNW 8.1 mph - N/A   Clear
9:53 PM 52.0 °F - 37.9 °F 59% 30.01 in 10.0 mi South 3.5 mph - N/A   Clear
10:53 PM 55.0 °F - 42.1 °F 62% 30.00 in 10.0 mi NNW 9.2 mph - N/A   Clear
11:53 PM 51.1 °F - 39.0 °F 63% 30.01 in 10.0 mi West 8.1 mph - N/A   Clear